When you browse on this site, cookies collect data to enhance your experience and personalize the content and advertising you see.
Visit our Privacy Policy to learn more. By continuing to use the site, you agree to this use of cookies and data.
  • In Denmark
  • List of Countries
  • For 7 days
  • Water Temperature
  • Weather Map
  • Weather Widgets
  • user-avatar
    Login

    Hourly Weather Djelfa

    Today, 4 April, Saturday

    Time Temperature Precipitation Wind Pressure Humidity
    00:00 +3°C° 0 mm 5 mps 662 mmHg 94%
    01:00 +4°C° 0 mm 4 mps 662 mmHg 94%
    02:00 +4°C° 0 mm 3 mps 662 mmHg 95%
    03:00 +4°C° 0 mm 3 mps 662 mmHg 95%
    04:00 +5°C° 0 mm 2 mps 662 mmHg 94%
    05:00 +5°C° 0 mm 2 mps 662 mmHg 93%
    06:00 +6°C° 0 mm 1 mps 663 mmHg 92%
    07:00 +7°C° 0 mm 1 mps 663 mmHg 82%
    08:00 +9°C° 0 mm 1 mps 664 mmHg 72%
    09:00 +10°C° 0 mm 1 mps 664 mmHg 62%
    10:00 +11°C° 0 mm 1 mps 664 mmHg 55%
    11:00 +13°C° 0 mm 1 mps 665 mmHg 48%
    12:00 +14°C° 0 mm 1 mps 665 mmHg 41%
    13:00 +15°C° 0 mm 2 mps 665 mmHg 38%
    14:00 +16°C° 0 mm 2 mps 664 mmHg 35%
    15:00 +16°C° 0 mm 2 mps 664 mmHg 32%
    16:00 +16°C° 0 mm 2 mps 664 mmHg 34%
    17:00 +16°C° 0 mm 3 mps 664 mmHg 36%
    18:00 +14°C° 0 mm 3 mps 664 mmHg 38%
    19:00 +13°C° 0 mm 3 mps 664 mmHg 40%
    20:00 +13°C° 0 mm 3 mps 665 mmHg 42%
    21:00 +12°C° 0 mm 3 mps 665 mmHg 44%
    22:00 +12°C° 0 mm 3 mps 665 mmHg 45%
    23:00 +11°C° 0 mm 3 mps 665 mmHg 46%

    Tomorrow, 5 April, Sunday

    Time Temperature Precipitation Wind Pressure Humidity
    00:00 +11°C° 0 mm 3 mps 664 mmHg 47%
    01:00 +11°C° 0 mm 3 mps 664 mmHg 48%
    02:00 +10°C° 0 mm 3 mps 664 mmHg 50%
    03:00 +10°C° 0 mm 2 mps 664 mmHg 51%
    04:00 +10°C° 0 mm 2 mps 664 mmHg 51%
    05:00 +10°C° 0 mm 2 mps 664 mmHg 52%
    06:00 +10°C° 0 mm 2 mps 664 mmHg 52%
    07:00 +13°C° 0 mm 2 mps 665 mmHg 48%
    08:00 +14°C° 0 mm 2 mps 665 mmHg 43%
    09:00 +16°C° 0 mm 2 mps 666 mmHg 39%
    10:00 +17°C° 0 mm 3 mps 666 mmHg 37%
    11:00 +18°C° 0 mm 3 mps 666 mmHg 35%
    12:00 +19°C° 0 mm 4 mps 666 mmHg 32%
    13:00 +19°C° 0 mm 4 mps 666 mmHg 31%
    14:00 +20°C° 0 mm 5 mps 665 mmHg 30%
    15:00 +20°C° 0 mm 5 mps 665 mmHg 28%
    16:00 +19°C° 0 mm 5 mps 665 mmHg 31%
    17:00 +19°C° 0 mm 4 mps 665 mmHg 34%
    18:00 +18°C° 0 mm 4 mps 665 mmHg 36%
    19:00 +17°C° 0 mm 3 mps 665 mmHg 43%
    20:00 +15°C° 0 mm 2 mps 665 mmHg 50%
    21:00 +14°C° 0 mm 2 mps 666 mmHg 57%
    22:00 +14°C° 0 mm 1 mps 665 mmHg 59%
    23:00 +13°C° 0 mm 1 mps 665 mmHg 62%

    Day after tomorrow, 6 April, Monday

    Time Temperature Precipitation Wind Pressure Humidity
    00:00 +11°C° 0 mm 0 mps 665 mmHg 64%
    01:00 +11°C° 0 mm 0 mps 665 mmHg 64%
    02:00 +12°C° 0 mm 1 mps 665 mmHg 63%
    03:00 +12°C° 0 mm 1 mps 664 mmHg 63%
    04:00 +12°C° 0 mm 1 mps 665 mmHg 62%
    05:00 +12°C° 0 mm 1 mps 665 mmHg 61%
    06:00 +12°C° 0 mm 1 mps 665 mmHg 61%
    07:00 +14°C° 0 mm 1 mps 666 mmHg 53%
    08:00 +16°C° 0 mm 1 mps 667 mmHg 46%
    09:00 +19°C° 0 mm 1 mps 668 mmHg 39%
    10:00 +19°C° 0 mm 2 mps 668 mmHg 36%
    11:00 +20°C° 0 mm 2 mps 668 mmHg 34%
    12:00 +21°C° 0 mm 2 mps 668 mmHg 31%
    13:00 +21°C° 0 mm 3 mps 668 mmHg 29%
    14:00 +22°C° 0 mm 3 mps 667 mmHg 28%
    15:00 +22°C° 0 mm 4 mps 667 mmHg 27%
    16:00 +21°C° 0 mm 3 mps 667 mmHg 29%
    17:00 +20°C° 0 mm 3 mps 667 mmHg 32%
    18:00 +20°C° 0 mm 3 mps 667 mmHg 35%
    19:00 +19°C° 0 mm 3 mps 667 mmHg 39%
    20:00 +18°C° 0 mm 3 mps 668 mmHg 43%
    21:00 +18°C° 0 mm 3 mps 669 mmHg 46%
    22:00 +17°C° 0.1 mm 3 mps 668 mmHg 51%
    23:00 +16°C° 0.1 mm 3 mps 668 mmHg 55%

    7 April, Tuesday

    Time Temperature Precipitation Wind Pressure Humidity
    00:00 +14°C° 0.1 mm 3 mps 668 mmHg 60%
    01:00 +15°C° 0.1 mm 2 mps 668 mmHg 61%
    02:00 +15°C° 0.1 mm 2 mps 668 mmHg 62%
    03:00 +15°C° 0.1 mm 2 mps 667 mmHg 63%
    04:00 +13°C° 1 mm 3 mps 667 mmHg 67%
    05:00 +12°C° 1 mm 4 mps 667 mmHg 70%
    06:00 +12°C° 1 mm 5 mps 667 mmHg 73%
    07:00 +12°C° 1 mm 5 mps 667 mmHg 75%
    08:00 +11°C° 1 mm 4 mps 668 mmHg 77%
    09:00 +11°C° 1 mm 4 mps 668 mmHg 79%
    10:00 +13°C° 0.3 mm 3 mps 668 mmHg 71%
    11:00 +14°C° 0.3 mm 3 mps 669 mmHg 62%
    12:00 +17°C° 0.3 mm 3 mps 669 mmHg 54%
    13:00 +17°C° 0.4 mm 3 mps 669 mmHg 54%
    14:00 +17°C° 0.4 mm 3 mps 668 mmHg 54%
    15:00 +18°C° 0.4 mm 3 mps 668 mmHg 53%
    16:00 +17°C° 0.7 mm 3 mps 668 mmHg 57%
    17:00 +16°C° 0.7 mm 2 mps 668 mmHg 62%
    18:00 +15°C° 0.7 mm 2 mps 667 mmHg 66%
    19:00 +15°C° 0.2 mm 2 mps 668 mmHg 71%
    20:00 +14°C° 0.2 mm 2 mps 668 mmHg 75%
    21:00 +13°C° 0.2 mm 2 mps 668 mmHg 80%
    22:00 +13°C° 0.2 mm 2 mps 668 mmHg 82%
    23:00 +12°C° 0.2 mm 2 mps 668 mmHg 85%

    8 April, Wednesday

    Time Temperature Precipitation Wind Pressure Humidity
    00:00 +12°C° 0.2 mm 1 mps 668 mmHg 87%
    01:00 +11°C° 0 mm 1 mps 667 mmHg 88%
    02:00 +11°C° 0 mm 1 mps 667 mmHg 89%
    03:00 +11°C° 0 mm 1 mps 667 mmHg 89%
    04:00 +11°C° 0 mm 1 mps 667 mmHg 90%
    05:00 +11°C° 0 mm 1 mps 667 mmHg 90%
    06:00 +11°C° 0 mm 1 mps 667 mmHg 91%
    07:00 +12°C° 0.1 mm 1 mps 667 mmHg 83%
    08:00 +13°C° 0.1 mm 1 mps 668 mmHg 75%
    09:00 +15°C° 0.1 mm 2 mps 668 mmHg 66%
    10:00 +16°C° 0.1 mm 2 mps 668 mmHg 60%
    11:00 +17°C° 0.1 mm 2 mps 668 mmHg 54%
    12:00 +18°C° 0.1 mm 2 mps 668 mmHg 47%
    13:00 +18°C° 0.1 mm 3 mps 668 mmHg 45%
    14:00 +18°C° 0.1 mm 3 mps 668 mmHg 42%
    15:00 +19°C° 0.1 mm 3 mps 667 mmHg 39%
    16:00 +18°C° 0 mm 3 mps 667 mmHg 41%
    17:00 +18°C° 0 mm 4 mps 667 mmHg 43%
    18:00 +17°C° 0 mm 4 mps 667 mmHg 45%
    19:00 +15°C° 0 mm 4 mps 667 mmHg 51%
    20:00 +14°C° 0 mm 4 mps 667 mmHg 57%
    21:00 +13°C° 0 mm 3 mps 667 mmHg 63%
    22:00 +13°C° 0 mm 4 mps 667 mmHg 67%
    23:00 +12°C° 0 mm 4 mps 667 mmHg 71%

    9 April, Thursday

    Time Temperature Precipitation Wind Pressure Humidity
    00:00 +12°C° 0 mm 5 mps 667 mmHg 75%
    01:00 +11°C° 0 mm 4 mps 667 mmHg 76%
    02:00 +11°C° 0 mm 4 mps 667 mmHg 78%
    03:00 +11°C° 0 mm 4 mps 666 mmHg 80%
    04:00 +10°C° 0 mm 4 mps 666 mmHg 80%
    05:00 +10°C° 0 mm 4 mps 666 mmHg 79%
    06:00 +10°C° 0 mm 4 mps 666 mmHg 79%
    07:00 +11°C° 0 mm 4 mps 667 mmHg 75%
    08:00 +12°C° 0 mm 5 mps 667 mmHg 71%
    09:00 +13°C° 0 mm 5 mps 667 mmHg 67%
    10:00 +11°C° 0.2 mm 6 mps 667 mmHg 69%
    11:00 +11°C° 0.2 mm 6 mps 667 mmHg 71%
    12:00 +11°C° 0.2 mm 6 mps 667 mmHg 73%
    13:00 +11°C° 0.3 mm 6 mps 666 mmHg 73%
    14:00 +11°C° 0.3 mm 6 mps 666 mmHg 73%
    15:00 +13°C° 0.3 mm 6 mps 666 mmHg 74%
    16:00 +11°C° 0.8 mm 6 mps 666 mmHg 78%
    17:00 +12°C° 0.8 mm 5 mps 665 mmHg 82%
    18:00 +10°C° 0.8 mm 5 mps 665 mmHg 86%
    19:00 +11°C° 0.4 mm 4 mps 666 mmHg 86%
    20:00 +11°C° 0.4 mm 4 mps 666 mmHg 87%
    21:00 +11°C° 0.4 mm 3 mps 666 mmHg 88%
    22:00 +11°C° 0.1 mm 3 mps 666 mmHg 88%
    23:00 +11°C° 0.1 mm 3 mps 666 mmHg 88%
    Show more